Mount Werner, CO

3:58 AM MDT on October 19, 2017 (GMT -0600)
Mount Werner

Weather History for K3MW - June, 2014

Change the Weather History Date:

Monday, June 9, 2014

  Actual Average (KSBS) Record (KSBS)
Temperature  
Mean Temperature 42 °F -  
Max Temperature 51 °F 69 °F 86 °F (1918)
Min Temperature 32 °F 37 °F 21 °F (1950)
Degree Days  
Heating Degree Days 24    
Moisture  
Dew Point 25 °F    
Average Humidity 54    
Maximum Humidity 80    
Minimum Humidity 32    
Precipitation  
Precipitation 0.00 in - - ()
Sea Level Pressure  
Sea Level Pressure 30.38 in    
Wind  
Wind Speed 4 mph (West)    
Max Wind Speed 13 mph    
Max Gust Speed 16 mph    
Visibility 10 miles    
Events      
Averages and records for this station are not official NWS values.
T = Trace of Precipitation, MM = Missing Value Source: NWS Daily Summary

Daily Weather History Graph

Daily Weather History Graph

Search for Another Location

Airport or City:

Trip Planner

Search our weather history database for the weather conditions in past years. The results will help you decide how hot, cold, wet, or windy it might be!

Date:

Astronomy

Jun. 09, 2014 Rise Set
Actual Time 5:36 AM MDT 8:36 PM MDT
Civil Twilight 5:03 AM MDT 9:09 PM MDT
Nautical Twilight 4:21 AM MDT 9:51 PM MDT
Astronomical Twilight 3:33 AM MDT 10:40 PM MDT
Moon 4:59 PM MDT (6/9) 3:06 AM MDT (6/9)
Length of Visible Light 16h 05m
Length of Day
14h 59m
Waxing Gibbous, 85% of the Moon is Illuminated
Jun 9
Waxing Gibbous
Jun 12
Full
Jun 19
Last Quarter
Jun 27
New
Jul 5
First Quarter

Hourly Weather History & Observations

Time (MDT) Temp. Windchill Dew Point Humidity Pressure Visibility Wind Dir Wind Speed Gust Speed Precip Events Conditions
12:17 AM 32.0 °F 27.5 °F 26.6 °F 80% 30.38 in 10.0 mi North 4.6 mph - N/A   Clear
12:37 AM 32.0 °F 26.4 °F 23.0 °F 69% 30.38 in 10.0 mi North 5.8 mph - N/A   Clear
12:57 AM 32.0 °F - 21.2 °F 64% 30.38 in 10.0 mi Calm Calm - N/A   Clear
1:17 AM 32.0 °F - 21.2 °F 64% 30.38 in 10.0 mi Calm Calm - N/A   Clear
1:37 AM 32.0 °F 28.7 °F 21.2 °F 64% 30.37 in 10.0 mi North 3.5 mph - N/A   Clear
1:57 AM 32.0 °F - 21.2 °F 64% 30.37 in 10.0 mi Calm Calm - N/A   Clear
2:17 AM 32.0 °F - 21.2 °F 64% 30.37 in 10.0 mi Calm Calm - N/A   Clear
2:37 AM 32.0 °F 27.5 °F 21.2 °F 64% 30.37 in 10.0 mi NNW 4.6 mph - N/A   Clear
2:57 AM 32.0 °F - 21.2 °F 64% 30.37 in 10.0 mi Calm Calm - N/A   Clear
3:17 AM 32.0 °F 27.5 °F 23.0 °F 69% 30.37 in 10.0 mi NNW 4.6 mph - N/A   Clear
3:37 AM 32.0 °F 28.7 °F 23.0 °F 69% 30.37 in 10.0 mi NNW 3.5 mph - N/A   Clear
3:57 AM 32.0 °F - 21.2 °F 64% 30.37 in 10.0 mi Calm Calm - N/A   Clear
4:17 AM 32.0 °F - 19.4 °F 60% 30.37 in 10.0 mi Calm Calm - N/A   Clear
4:37 AM 32.0 °F - 19.4 °F 60% 30.36 in 10.0 mi Calm Calm - N/A   Clear
4:57 AM 32.0 °F 28.7 °F 19.4 °F 60% 30.37 in 10.0 mi West 3.5 mph - N/A   Clear
5:17 AM 32.0 °F 27.5 °F 26.6 °F 80% 30.37 in 10.0 mi South 4.6 mph - N/A   Clear
5:37 AM 32.0 °F - 24.8 °F 75% 30.37 in 10.0 mi Calm Calm - N/A   Clear
5:57 AM 32.0 °F - 23.0 °F 69% 30.37 in 10.0 mi Calm Calm - N/A   Clear
6:17 AM 32.0 °F - 21.2 °F 64% 30.38 in 10.0 mi Calm Calm - N/A   Clear
6:37 AM 32.0 °F - 19.4 °F 60% 30.38 in 10.0 mi Calm Calm - N/A   Clear
6:57 AM 33.8 °F - 17.6 °F 52% 30.39 in 10.0 mi Calm Calm - N/A   Clear
7:17 AM 33.8 °F - 19.4 °F 56% 30.39 in 10.0 mi Calm Calm - N/A   Clear
7:37 AM 33.8 °F 30.8 °F 24.8 °F 70% 30.39 in 10.0 mi East 3.5 mph - N/A   Clear
7:57 AM 35.6 °F - 23.0 °F 60% 30.39 in 10.0 mi Calm Calm - N/A   Clear
8:17 AM 35.6 °F - 23.0 °F 60% 30.39 in 10.0 mi Calm Calm - N/A   Clear
8:37 AM 37.4 °F - 26.6 °F 65% 30.39 in 10.0 mi Calm Calm - N/A   Clear
9:17 AM 37.4 °F - 24.8 °F 60% 30.41 in 10.0 mi Calm Calm - N/A   Clear
9:37 AM 39.2 °F - 28.4 °F 65% 30.40 in 10.0 mi Calm Calm - N/A   Clear
9:57 AM 37.4 °F - 30.2 °F 75% 30.41 in 10.0 mi Calm Calm - N/A   Clear
10:37 AM 37.4 °F - 28.4 °F 70% 30.41 in 10.0 mi Calm Calm - N/A   Clear
10:57 AM 39.2 °F 37.0 °F 28.4 °F 65% 30.41 in 10.0 mi West 3.5 mph - N/A   Clear
11:17 AM 39.2 °F - 30.2 °F 70% 30.41 in 10.0 mi Calm Calm - N/A   Clear
11:37 AM 41.0 °F 38.0 °F 30.2 °F 65% 30.41 in 10.0 mi WSW 4.6 mph - N/A   Clear
11:57 AM 41.0 °F - 30.2 °F 65% 30.41 in 10.0 mi Calm Calm - N/A   Clear
12:17 PM 42.8 °F 40.1 °F 30.2 °F 61% 30.41 in 10.0 mi WSW 4.6 mph - N/A   Clear
12:37 PM 42.8 °F 39.3 °F 26.6 °F 53% 30.41 in 10.0 mi WSW 5.8 mph - N/A   Clear
2:17 PM 46.4 °F 44.3 °F 26.6 °F 46% 30.39 in 10.0 mi SW 4.6 mph - N/A   Clear
2:37 PM 46.4 °F 45.2 °F 28.4 °F 50% 30.39 in 10.0 mi WNW 3.5 mph - N/A   Clear
2:57 PM 48.2 °F - 30.2 °F 50% 30.38 in 10.0 mi West 6.9 mph - N/A   Clear
3:17 PM 50.0 °F - 30.2 °F 47% 30.38 in 10.0 mi SSW 3.5 mph - N/A   Clear
3:37 PM 50.0 °F - 30.2 °F 47% 30.38 in 10.0 mi West 4.6 mph - N/A   Clear
3:57 PM 48.2 °F - 28.4 °F 46% 30.37 in 10.0 mi West 10.4 mph - N/A   Clear
4:17 PM 50.0 °F - 28.4 °F 43% 30.38 in 10.0 mi West 8.1 mph - N/A   Clear
4:37 PM 51.8 °F - 26.6 °F 38% 30.37 in 10.0 mi WNW 6.9 mph - N/A   Clear
4:57 PM 50.0 °F - 21.2 °F 32% 30.37 in 10.0 mi West 9.2 mph - N/A   Clear
5:17 PM 50.0 °F - 23.0 °F 35% 30.37 in 10.0 mi West 9.2 mph - N/A   Clear
5:37 PM 50.0 °F - 23.0 °F 35% 30.36 in 10.0 mi West 9.2 mph - N/A   Clear
5:57 PM 50.0 °F - 23.0 °F 35% 30.36 in 10.0 mi West 8.1 mph - N/A   Clear
6:17 PM 50.0 °F - 21.2 °F 32% 30.36 in 10.0 mi West 8.1 mph 16.1 mph N/A   Clear
6:37 PM 50.0 °F - 23.0 °F 35% 30.35 in 10.0 mi West 11.5 mph - N/A   Clear
6:57 PM 50.0 °F - 24.8 °F 37% 30.36 in 10.0 mi West 6.9 mph - N/A   Clear
7:17 PM 50.0 °F - 26.6 °F 40% 30.36 in 10.0 mi West 5.8 mph - N/A   Clear
7:37 PM 50.0 °F - 26.6 °F 40% 30.36 in 10.0 mi West 10.4 mph - N/A   Clear
7:57 PM 48.2 °F - 26.6 °F 43% 30.36 in 10.0 mi WNW 10.4 mph - N/A   Clear
8:17 PM 46.4 °F 41.9 °F 26.6 °F 46% 30.36 in 10.0 mi WNW 9.2 mph - N/A   Clear
8:37 PM 46.4 °F 41.1 °F 26.6 °F 46% 30.36 in 10.0 mi WNW 11.5 mph - N/A   Clear
8:57 PM 46.4 °F 40.7 °F 24.8 °F 43% 30.36 in 10.0 mi West 12.7 mph - N/A   Clear
9:17 PM 46.4 °F 41.1 °F 26.6 °F 46% 30.36 in 10.0 mi West 11.5 mph - N/A   Clear
9:37 PM 46.4 °F 41.1 °F 28.4 °F 50% 30.36 in 10.0 mi West 11.5 mph - N/A   Clear
9:57 PM 46.4 °F 41.1 °F 28.4 °F 50% 30.37 in 10.0 mi West 11.5 mph - N/A   Clear
10:17 PM 46.4 °F 41.5 °F 28.4 °F 50% 30.37 in 10.0 mi West 10.4 mph - N/A   Clear
10:37 PM 46.4 °F 41.1 °F 23.0 °F 40% 30.37 in 10.0 mi West 11.5 mph - N/A   Clear
10:57 PM 46.4 °F 41.5 °F 17.6 °F 32% 30.37 in 10.0 mi West 10.4 mph - N/A   Clear
11:17 PM 48.2 °F - 19.4 °F 32% 30.36 in 10.0 mi West 10.4 mph - N/A   Clear
11:37 PM 46.4 °F 41.5 °F 21.2 °F 37% 30.36 in 10.0 mi WSW 10.4 mph - N/A   Clear
11:57 PM 46.4 °F 41.9 °F 23.0 °F 40% 30.36 in 10.0 mi SW 9.2 mph - N/A   Clear